This is the latest recevied weather packets stored in our database for station/object WX5KDM. If no packets are shown the sender has not sent any weather packets the latest 1 day(s).
| Time | Temp. | Humidity | Pressure | Rain* | Wind** | Luminosity | Snow |
|---|---|---|---|---|---|---|---|
| 1778008953 | 21.67° C | 71% | 1011.5 hPa | 0 mm | 1.79 m/s, 146° | - | - |
| 1778008651 | 21.67° C | 71% | 1011.6 hPa | 0 mm | 0.89 m/s, 221° | - | - |
| 1778008349 | 21.67° C | 71% | 1011.7 hPa | 0 mm | 1.34 m/s, 122° | - | - |
| 1778008045 | 21.67° C | 71% | 1011.8 hPa | 0 mm | 2.24 m/s, 196° | - | - |
| 1778007745 | 22.22° C | 70% | 1011.9 hPa | 0 mm | 2.68 m/s, 202° | - | - |
| 1778007442 | 22.22° C | 70% | 1011.7 hPa | 0 mm | 0.89 m/s, 114° | - | - |
| 1778007138 | 21.67° C | 70% | 1011.8 hPa | 0 mm | 1.34 m/s, 216° | - | - |
| 1778006834 | 21.67° C | 70% | 1012 hPa | 0 mm | 1.79 m/s, 144° | - | - |
| 1778006532 | 21.11° C | 72% | 1012.1 hPa | 0 mm | 1.79 m/s, 149° | - | - |
| 1778006228 | 21.11° C | 72% | 1011.9 hPa | 0 mm | 1.79 m/s, 196° | - | - |
| 1778005926 | 21.11° C | 75% | 1012.2 hPa | 0 mm | 0 m/s | - | - |
| 1778005622 | 21.11° C | 75% | 1012.3 hPa | 0 mm | 0.45 m/s, 147° | - | - |
| 1778005319 | 20.56° C | 73% | 1012.4 hPa | 0 mm | 1.34 m/s, 168° | - | - |
| 1778005016 | 20.56° C | 77% | 1012.1 hPa | 0 mm | 0 m/s | - | - |
| 1778004713 | 20.56° C | 77% | 1012.1 hPa | 0 mm | 0.89 m/s, 151° | - | - |
| 1778004409 | 20.56° C | 76% | 1012.2 hPa | 0 mm | 0.45 m/s, 157° | - | - |
| 1778004107 | 20.56° C | 75% | 1012.3 hPa | 0 mm | 1.79 m/s, 173° | - | - |
| 1778003803 | 20.56° C | 75% | 1012.4 hPa | 0 mm | 1.34 m/s, 101° | - | - |
| 1778003499 | 21.11° C | 74% | 1012.2 hPa | 0 mm | 1.79 m/s, 124° | - | - |
| 1778003196 | 21.11° C | 75% | 1012.4 hPa | 0 mm | 0.45 m/s, 132° | - | - |
| 1778002892 | 21.67° C | 75% | 1012.4 hPa | 0 mm | 0.89 m/s, 153° | - | - |
| 1778002589 | 21.11° C | 76% | 1012.7 hPa | 0 mm | 0.89 m/s, 150° | - | - |
| 1778002286 | 20.56° C | 78% | 1012.5 hPa | 0 mm | 0.45 m/s, 126° | - | - |
| 1778001983 | 20.56° C | 77% | 1012.7 hPa | 0 mm | 0.45 m/s, 155° | - | - |
| 1778001680 | 20.56° C | 76% | 1012.7 hPa | 0 mm | 0.45 m/s, 121° | - | - |
* Rain latest hour (hover to see other rain measurements)
** Current wind speed in m/s (hover to see current wind gust speed)